[[{"header":{"parameterUnit":"m.s-1","parameterCategory":1,"la1":30.2991,"la2":30.254,"lo1":-89.0895,"lo2":-89.0444,"dx":0.0017,"dy":0.0017,"nx":28,"ny":28,"refTime":"2022-11-08T09:00:00:Z","depth":0,"parameterNumber":2,"parameterNumberName":"U-component_of_WINDS"},"data":[0,0,0,0,0,0,0,0,0,0,0,0,0,0,0,0,0,0,0,0,0,0,0,0,0,0,0,0,0,0,0,0,0,0,0,0,0,0,0,0,0,0,0,0,0,0,0,0,0,0,0,0,0,0,0,0,0,0,-5.1668,-5.1668,0,-5.1707,-5.1707,-5.1707,-5.1561,-5.1557,-5.1552,-5.1548,-5.1588,-5.1593,-5.1598,0,0,0,0,0,0,0,0,0,0,0,0,0,-5.1465,-5.147,-5.1668,-5.1668,-5.1669,-5.1706,-5.1707,-5.1708,-5.1562,-5.1557,-5.1551,-5.1546,-5.1586,-5.1592,-5.1598,0,0,0,0,0,0,0,0,0,0,0,0,0,-5.1534,-5.1471,-5.1667,-5.16,-5.1595,-5.1706,-5.1707,-5.1708,-5.1563,-5.1557,-5.155,-5.1544,-5.1584,-5.1592,-5.1599,-5.1777,0,0,-5.1622,-5.1626,0,0,0,0,0,0,0,0,-5.153,-5.1541,-5.161,-5.1605,-5.1599,-5.1622,-5.165,-5.1731,-5.1565,-5.1575,-5.1548,-5.1541,-5.1605,-5.161,-5.1632,-5.1779,-5.178,-5.1623,-5.1628,-5.1631,-5.1633,0,0,0,0,0,0,0,-5.1525,-5.1539,-5.1683,-5.1611,-5.1605,-5.1568,-5.157,-5.1665,-5.1626,-5.1574,-5.1563,-5.157,-5.16,-5.1625,-5.1632,-5.1781,-5.1623,-5.163,-5.1634,-5.1637,-5.2075,-5.2081,0,0,0,0,0,0,-5.153,-5.1536,-5.1682,-5.1684,-5.1548,-5.1577,-5.158,-5.1621,-5.1624,-5.1619,-5.1575,-5.1563,-5.1615,-5.1623,-5.1632,-5.1841,-5.1631,-5.1638,-5.1643,-5.2068,-5.2076,-5.2084,0,0,0,0,0,0,-5.1526,-5.1544,-5.168,-5.1607,-5.1622,-5.1587,-5.1635,-5.1626,-5.165,-5.1626,-5.1618,-5.1608,-5.161,-5.1622,-5.1742,-5.184,-5.1642,-5.1649,-5.2059,-5.207,-5.208,-5.2259,0,0,0,0,0,0,-5.1521,-5.1544,-5.1611,-5.161,-5.1626,-5.179,-5.1641,-5.1631,-5.1664,-5.1648,-5.1654,-5.1649,-5.1606,-5.1731,-5.175,-5.1847,-5.1655,-5.205,-5.2064,-5.2077,-5.2244,-5.2274,-5.23,0,0,0,0,0,-5.1514,-5.166,-5.1616,-5.1634,-5.171,-5.1796,-5.1805,-5.1753,-5.1672,-5.174,-5.1724,-5.1648,-5.1826,-5.1745,-5.1764,-5.1865,-5.2044,-5.206,-5.2076,-5.2232,-5.2269,-5.23,0,0,0,0,0,0,-5.1674,-5.1659,-5.1609,-5.1759,-5.178,-5.1771,-5.1855,-5.1794,-5.1838,-5.1821,-5.1754,-5.1757,-5.1889,-5.1888,-5.1799,-5.2037,-5.1921,-5.1941,-5.2033,-5.2068,-5.2095,-5.2093,-5.1661,0,0,0,0,0,-5.1727,-5.1799,-5.1781,-5.1915,-5.1928,-5.189,-5.1926,-5.1884,-5.1902,-5.191,-5.1903,-5.1924,-5.1984,-5.2026,-5.208,-5.2243,-5.2242,-5.2322,-5.235,-5.2373,-5.2392,-5.2478,-5.2513,-5.2136,-5.2136,-5.2135,0,0,-5.1837,-5.1837,-5.1887,-5.1947,-5.1958,-5.2034,-5.1899,-5.1984,-5.2039,-5.1923,-5.2037,-5.2032,-5.2051,-5.2193,-5.2256,-5.2197,-5.2495,-5.2393,-5.2412,-5.2418,-5.2498,-5.2533,-5.2565,-5.2146,-5.2145,-5.2143,0,0,-5.2076,-5.2084,-5.2196,-5.221,-5.2229,-5.2202,-5.2229,-5.223,-5.2222,-5.2335,-5.225,-5.2313,-5.2419,-5.2435,-5.2458,-5.2702,-5.2634,-5.2721,-5.2868,-5.2953,-5.2982,-5.3009,-5.3096,-5.3128,-5.274,-5.274,-5.2741,0,-5.2211,-5.2321,-5.2262,-5.2353,-5.2382,-5.228,-5.2394,-5.2409,-5.2445,-5.2467,-5.2401,-5.253,-5.2536,-5.2681,-5.274,-5.2762,-5.279,-5.2721,-5.2983,-5.3009,-5.3032,-5.3115,-5.3148,-5.2751,-5.275,-5.2749,-5.2748,0,-5.2486,-5.2564,-5.2652,-5.2689,-5.2728,-5.283,-5.2785,-5.2831,-5.2785,-5.2766,-5.2881,-5.2884,-5.2937,-5.2967,-5.2924,-5.3107,-5.307,-5.2994,-5.2877,-5.308,-5.3156,-5.3187,-5.2766,-5.2762,-5.2759,-5.2756,0,0,-5.2829,-5.2831,-5.2865,-5.288,-5.2892,-5.2951,-5.3048,-5.3099,-5.314,-5.3167,-5.3247,-5.3338,-5.3268,-5.3293,-5.325,-5.3324,-5.3518,-5.3239,-5.3239,-5.3292,-5.372,-5.3777,-5.3815,-5.3472,-5.3478,-5.3483,-5.3718,0,-5.3064,-5.3231,-5.3179,-5.3347,-5.3418,-5.3321,-5.3405,-5.3422,-5.3406,-5.3463,-5.3444,-5.351,-5.3412,-5.3427,-5.3496,-5.348,-5.3603,-5.3462,-5.3546,-5.355,-5.3546,-5.3855,-5.3916,-5.4139,-5.3748,-5.3753,-5.3757,0,-5.3362,-5.3401,-5.3576,-5.3576,-5.3604,-5.368,-5.3723,-5.3779,-5.3795,-5.3778,-5.3807,-5.3747,-5.3841,-5.3722,-5.3851,-5.3756,-5.3787,-5.3784,-5.3791,-5.3798,-5.3667,-5.3872,-5.4209,-5.4243,-5.3803,-5.3799,-5.3796,0,-5.3596,-5.3692,-5.3809,-5.3825,-5.3827,-5.3884,-5.3887,-5.3897,-5.3931,-5.3968,-5.3989,-5.4037,-5.4063,-5.4101,-5.4056,-5.3974,-5.4192,-5.4069,-5.418,-5.4182,-5.4232,-5.423,-5.458,-5.425,-5.425,-5.4249,-5.4249,0,-5.3865,-5.3976,-5.3914,-5.3986,-5.4107,-5.4046,-5.4168,-5.416,-5.4169,-5.4238,-5.4156,-5.4222,-5.4158,-5.4218,-5.4183,-5.4295,-5.4308,-5.4296,-5.4286,-5.4305,-5.4306,-5.4325,-5.4309,-5.4258,-5.4256,-5.4254,-5.4253,0,-5.4147,-5.411,-5.4232,-5.4224,-5.4224,-5.4314,-5.4307,-5.4373,-5.435,-5.4438,-5.4455,-5.442,-5.4486,-5.4444,-5.4511,-5.4487,-5.4634,-5.4602,-5.4629,-5.4621,-5.4735,-5.4726,-5.5111,-5.5158,-5.4797,-5.4801,-5.4804,0,-5.4322,-5.4405,-5.4406,-5.4447,-5.4456,-5.4521,-5.4555,-5.4498,-5.4537,-5.4561,-5.4625,-5.4684,-5.4728,-5.4838,-5.4818,-5.4869,-5.4838,-5.4969,-5.4845,-5.4861,-5.4841,-5.4837,-5.4845,-5.4995,-5.4999,-5.5003,-5.5005,0,-5.4637,-5.4614,-5.4667,-5.4714,-5.4757,-5.4791,-5.4818,-5.4855,-5.4798,-5.4846,-5.4912,-5.4947,-5.5015,-5.5075,-5.5117,-5.5119,-5.5054,-5.5044,-5.5073,-5.5093,-5.5106,-5.5102,-5.4699,-5.5036,-5.5033,-5.5031,-5.5029,-5.5028,-5.4871,-5.4941,-5.4952,-5.5014,-5.5028,-5.5055,-5.5117,-5.5101,-5.5156,-5.5207,-5.5169,-5.5249,-5.5261,-5.5311,-5.5322,-5.5383,-5.533,-5.5371,-5.5382,-5.5393,-5.541,-5.5096,-5.539,-5.5389,-5.5389,-5.5388,-5.5387,0,-5.5182,-5.5185,-5.5242,-5.5282,-5.5331,-5.5263,-5.529,-5.5334,-5.5405,-5.5423,-5.5468,-5.5544,-5.5602,-5.5586,-5.5637,-5.5689,-5.566,-5.5704,-5.57,-5.5702,-5.5454,-5.5425,-5.5727,-5.5727,-5.5727,-5.5727,-5.5727,-5.5726,-5.535,-5.5464,-5.5443,-5.5562,-5.5563,-5.5641,-5.5661,-5.5686,-5.5699,-5.5788,-5.5836,-5.5825,-5.5829,-5.5879,-5.5929,-5.5922,-5.5945,-5.6001,-5.5984,-5.5753,-5.572,-5.5688,-5.566,-5.6006,-5.6007,-5.6227,-5.6229,-5.6231]},{"header":{"parameterUnit":"m.s-1","parameterCategory":1,"la1":30.2991,"la2":30.254,"lo1":-89.0895,"lo2":-89.0444,"dx":0.0017,"dy":0.0017,"nx":28,"ny":28,"refTime":"2022-11-08T09:00:00:Z","depth":0,"parameterNumber":3,"parameterNumberName":"V-component_of_WINDS"},"data":[0,0,0,0,0,0,0,0,0,0,0,0,0,0,0,0,0,0,0,0,0,0,0,0,0,0,0,0,0,0,0,0,0,0,0,0,0,0,0,0,0,0,0,0,0,0,0,0,0,0,0,0,0,0,0,0,0,0,-4.7356,-4.7357,0,-4.743,-4.7431,-4.7432,-4.7376,-4.7373,-4.7371,-4.7369,-4.7441,-4.7445,-4.7449,0,0,0,0,0,0,0,0,0,0,0,0,0,-4.7162,-4.7166,-4.7356,-4.7357,-4.7358,-4.743,-4.7431,-4.7432,-4.7376,-4.7373,-4.737,-4.7368,-4.744,-4.7445,-4.745,0,0,0,0,0,0,0,0,0,0,0,0,0,-4.7242,-4.7167,-4.7356,-4.7339,-4.7338,-4.743,-4.7431,-4.7432,-4.7377,-4.7373,-4.737,-4.7366,-4.7438,-4.7444,-4.7451,-4.7562,0,0,-4.747,-4.7472,0,0,0,0,0,0,0,0,-4.7237,-4.7249,-4.734,-4.734,-4.7339,-4.739,-4.7389,-4.7475,-4.7378,-4.7362,-4.7369,-4.7364,-4.7427,-4.7434,-4.7456,-4.7565,-4.7568,-4.747,-4.7474,-4.7477,-4.7479,0,0,0,0,0,0,0,-4.7232,-4.7245,-4.7385,-4.7342,-4.7341,-4.7326,-4.7333,-4.7405,-4.7414,-4.7363,-4.7359,-4.7369,-4.7426,-4.745,-4.7457,-4.7569,-4.747,-4.7476,-4.748,-4.7482,-4.7772,-4.7776,0,0,0,0,0,0,-4.7228,-4.7241,-4.7383,-4.7387,-4.7279,-4.7332,-4.7341,-4.7377,-4.7413,-4.7415,-4.7372,-4.7366,-4.7441,-4.745,-4.7459,-4.7591,-4.7477,-4.7483,-4.7486,-4.7768,-4.7773,-4.7777,0,0,0,0,0,0,-4.7225,-4.7242,-4.738,-4.7313,-4.733,-4.734,-4.7381,-4.7381,-4.7404,-4.742,-4.742,-4.7395,-4.7438,-4.745,-4.7537,-4.7593,-4.7485,-4.7491,-4.7763,-4.777,-4.7775,-4.7856,0,0,0,0,0,0,-4.7219,-4.7241,-4.7284,-4.7315,-4.7333,-4.7457,-4.7385,-4.7385,-4.7416,-4.7409,-4.7441,-4.7443,-4.7436,-4.7527,-4.7543,-4.7599,-4.7496,-4.7758,-4.7766,-4.7773,-4.7848,-4.7864,-4.7877,0,0,0,0,0,-4.7212,-4.7304,-4.7287,-4.7304,-4.7388,-4.7461,-4.7471,-4.7462,-4.7421,-4.7464,-4.7473,-4.7442,-4.7584,-4.7537,-4.7554,-4.7613,-4.7755,-4.7764,-4.7773,-4.7842,-4.7861,-4.7877,0,0,0,0,0,0,-4.7279,-4.7307,-4.7289,-4.7393,-4.7425,-4.7451,-4.7505,-4.7483,-4.7527,-4.7518,-4.7504,-4.7512,-4.7602,-4.7616,-4.7563,-4.7721,-4.7663,-4.7675,-4.7709,-4.7728,-4.7742,-4.7736,-4.7501,0,0,0,0,0,-4.7305,-4.7363,-4.7385,-4.7474,-4.7491,-4.7496,-4.7527,-4.7517,-4.7549,-4.7562,-4.7578,-4.7609,-4.766,-4.7695,-4.7743,-4.785,-4.7855,-4.7899,-4.7913,-4.7925,-4.7936,-4.7992,-4.8011,-4.7806,-4.7806,-4.7806,0,0,-4.7361,-4.7384,-4.7421,-4.7488,-4.7512,-4.757,-4.7508,-4.7572,-4.7615,-4.7572,-4.7654,-4.7667,-4.77,-4.7797,-4.784,-4.7811,-4.7994,-4.7936,-4.7945,-4.795,-4.8003,-4.8022,-4.804,-4.7812,-4.7811,-4.781,0,0,-4.7493,-4.7516,-4.7593,-4.7618,-4.7655,-4.7657,-4.7675,-4.7705,-4.7712,-4.7795,-4.7763,-4.7813,-4.7902,-4.7927,-4.7951,-4.8091,-4.8064,-4.8107,-4.8182,-4.8237,-4.8253,-4.8268,-4.8316,-4.8334,-4.8118,-4.8118,-4.8118,0,-4.7557,-4.7646,-4.7635,-4.7702,-4.7732,-4.7696,-4.7772,-4.7797,-4.7847,-4.7867,-4.7834,-4.7945,-4.7965,-4.8066,-4.81,-4.8122,-4.8141,-4.8103,-4.8252,-4.8266,-4.8279,-4.8326,-4.8344,-4.8123,-4.8122,-4.8122,-4.8121,0,-4.7722,-4.7784,-4.7841,-4.7891,-4.7927,-4.7999,-4.7998,-4.8035,-4.8022,-4.8027,-4.8111,-4.8134,-4.8185,-4.8208,-4.8196,-4.8308,-4.8289,-4.8254,-4.8195,-4.8304,-4.8347,-4.8365,-4.813,-4.8128,-4.8127,-4.8126,0,0,-4.7898,-4.7941,-4.7962,-4.7984,-4.8022,-4.8068,-4.8137,-4.8189,-4.822,-4.8256,-4.8312,-4.8388,-4.8356,-4.8384,-4.8374,-4.8422,-4.853,-4.8381,-4.8382,-4.8407,-4.8653,-4.8678,-4.8699,-4.8512,-4.8515,-4.8518,-4.865,0,-4.8031,-4.8153,-4.8145,-4.8259,-4.8314,-4.828,-4.834,-4.8369,-4.8375,-4.8422,-4.8428,-4.8482,-4.8436,-4.8452,-4.8499,-4.8507,-4.8579,-4.8497,-4.8563,-4.8566,-4.8556,-4.8722,-4.8749,-4.8873,-4.8667,-4.867,-4.8672,0,-4.8202,-4.8244,-4.8364,-4.8392,-4.8415,-4.847,-4.8515,-4.8561,-4.8592,-4.8593,-4.8624,-4.8605,-4.8673,-4.8612,-4.8704,-4.8649,-4.8675,-4.8683,-4.8688,-4.8693,-4.8625,-4.8732,-4.8912,-4.8931,-4.8698,-4.8696,-4.8694,0,-4.8318,-4.8404,-4.8487,-4.8507,-4.8541,-4.858,-4.8596,-4.8623,-4.8654,-4.8694,-4.8713,-4.876,-4.8785,-4.8821,-4.8815,-4.8771,-4.8909,-4.8847,-4.891,-4.8911,-4.8941,-4.8939,-4.9128,-4.8959,-4.8958,-4.8958,-4.8958,0,-4.8467,-4.8541,-4.8539,-4.859,-4.8672,-4.8661,-4.8741,-4.8753,-4.8777,-4.8828,-4.8801,-4.8849,-4.8838,-4.8886,-4.8881,-4.8958,-4.897,-4.8971,-4.8969,-4.8974,-4.8974,-4.8991,-4.8982,-4.8963,-4.8962,-4.8961,-4.896,0,-4.8609,-4.8611,-4.8699,-4.8725,-4.8733,-4.8792,-4.8813,-4.886,-4.8863,-4.8928,-4.8943,-4.8949,-4.9003,-4.9,-4.9062,-4.9058,-4.9153,-4.9141,-4.9143,-4.914,-4.9203,-4.9197,-4.9409,-4.9436,-4.925,-4.9252,-4.9253,0,-4.8704,-4.8761,-4.8793,-4.8825,-4.8844,-4.8897,-4.8929,-4.892,-4.8953,-4.8992,-4.9034,-4.9086,-4.9127,-4.9216,-4.9224,-4.9271,-4.9259,-4.933,-4.9266,-4.9269,-4.926,-4.9256,-4.9261,-4.9343,-4.9345,-4.9347,-4.9348,0,-4.8872,-4.887,-4.8917,-4.8965,-4.9003,-4.904,-4.9073,-4.9101,-4.9095,-4.9134,-4.919,-4.9222,-4.9285,-4.9336,-4.938,-4.9395,-4.9371,-4.9368,-4.9385,-4.939,-4.9389,-4.939,-4.9177,-4.9364,-4.9362,-4.9361,-4.936,-4.9359,-4.8993,-4.9042,-4.9071,-4.9124,-4.9149,-4.918,-4.9226,-4.9235,-4.9282,-4.9333,-4.9324,-4.9386,-4.9414,-4.9471,-4.949,-4.9537,-4.9512,-4.9536,-4.9542,-4.9549,-4.9556,-4.9382,-4.9545,-4.9545,-4.9544,-4.9544,-4.9544,0,-4.9159,-4.9176,-4.9225,-4.9273,-4.9315,-4.9289,-4.9324,-4.936,-4.9415,-4.9444,-4.9485,-4.9548,-4.9598,-4.961,-4.9657,-4.9693,-4.9683,-4.9706,-4.9703,-4.9706,-4.9576,-4.9556,-4.9713,-4.9713,-4.9713,-4.9713,-4.9713,-4.9713,-4.925,-4.933,-4.9331,-4.9422,-4.9439,-4.95,-4.9522,-4.9551,-4.9573,-4.9646,-4.9687,-4.9695,-4.9717,-4.9765,-4.9809,-4.9811,-4.9829,-4.9857,-4.9854,-4.9732,-4.9716,-4.9699,-4.9681,-4.9861,-4.9861,-4.998,-4.9982,-4.9982]}]]